QLK230D YWLM-YSSY

Flight info

Callsign QLK230D
Flight time 0h 30m
Altitude 16000
Route WLM DCT MONDO H201 TESAT
Aircraft DH8D/M-SDE2E3FGRY/H

Departure

Time 2026-04-19 05:41
Airport Newcastle Airport (YWLM)

Arrival

Time 2026-04-19 06:11
Airport Sydney Kingsford Smith International Airport (YSSY)
Time Latitude Longitude Altitude Speed Heading
2026-04-19 05:26 -32.80407 151.84080 36 ft 0 kts 272°
2026-04-19 05:33 -32.80380 151.84070 36 ft 8 kts
2026-04-19 05:33 -32.80318 151.84036 36 ft 15 kts 310°
2026-04-19 05:33 -32.80230 151.83913 36 ft 22 kts 310°
2026-04-19 05:34 -32.80114 151.83820 36 ft 19 kts
2026-04-19 05:34 -32.79982 151.83844 36 ft 18 kts
2026-04-19 05:34 -32.79860 151.83873 36 ft 17 kts 30°
2026-04-19 05:34 -32.79780 151.83980 36 ft 16 kts 35°
2026-04-19 05:35 -32.79694 151.83920 36 ft 16 kts 310°
2026-04-19 05:35 -32.79570 151.83748 36 ft 38 kts 310°
2026-04-19 05:35 -32.79388 151.83493 36 ft 37 kts 310°
2026-04-19 05:35 -32.79233 151.83276 36 ft 31 kts 310°
2026-04-19 05:36 -32.79099 151.83090 36 ft 31 kts 309°
2026-04-19 05:36 -32.78942 151.82867 36 ft 37 kts 310°
2026-04-19 05:36 -32.78779 151.82640 36 ft 32 kts 310°
2026-04-19 05:36 -32.78645 151.82449 36 ft 27 kts 308°
2026-04-19 05:37 -32.78632 151.82358 36 ft 0 kts 230°
2026-04-19 05:38 -32.78634 151.82356 36 ft 3 kts 230°
2026-04-19 05:39 -32.78709 151.82294 36 ft 15 kts 185°
2026-04-19 05:39 -32.78761 151.82326 36 ft 0 kts 132°
2026-04-19 05:39 -32.78765 151.82332 36 ft 6 kts 132°
2026-04-19 05:40 -32.78875 151.82483 36 ft 59 kts 130°
2026-04-19 05:40 -32.79292 151.83067 36 ft 121 kts 129°
2026-04-19 05:40 -32.79917 151.83929 143 ft 145 kts 130°
2026-04-19 05:40 -32.80566 151.84943 393 ft 165 kts 131°
2026-04-19 05:41 -32.81290 151.86058 831 ft 173 kts 130°
2026-04-19 05:41 -32.82021 151.87212 1326 ft 179 kts 130°
2026-04-19 05:41 -32.82767 151.88394 1825 ft 184 kts 130°
2026-04-19 05:41 -32.83552 151.89639 2303 ft 193 kts 130°
2026-04-19 05:42 -32.84421 151.90878 2789 ft 199 kts 143°
2026-04-19 05:42 -32.85688 151.91454 3279 ft 197 kts 180°
2026-04-19 05:42 -32.86943 151.90935 3754 ft 200 kts 221°
2026-04-19 05:42 -32.87493 151.89429 4213 ft 206 kts 266°
2026-04-19 05:43 -32.87277 151.87761 4667 ft 208 kts 277°
2026-04-19 05:43 -32.86984 151.86089 5113 ft 209 kts 276°
2026-04-19 05:43 -32.86697 151.84386 5566 ft 210 kts 276°
2026-04-19 05:43 -32.86423 151.82687 6010 ft 211 kts 276°
2026-04-19 05:44 -32.86201 151.80968 6444 ft 210 kts 269°
2026-04-19 05:44 -32.86229 151.79233 6890 ft 210 kts 263°
2026-04-19 05:44 -32.86311 151.77508 7329 ft 211 kts 262°
2026-04-19 05:44 -32.86396 151.75764 7777 ft 212 kts 262°
2026-04-19 05:45 -32.86481 151.74022 8220 ft 212 kts 261°
2026-04-19 05:45 -32.86564 151.72293 8649 ft 212 kts 261°
2026-04-19 05:45 -32.86649 151.70541 9095 ft 212 kts 261°
2026-04-19 05:45 -32.86733 151.68805 9539 ft 211 kts 260°
2026-04-19 05:46 -32.86817 151.67067 9965 ft 212 kts 260°
2026-04-19 05:46 -32.86903 151.65308 10340 ft 214 kts 260°
2026-04-19 05:46 -32.86990 151.63545 10699 ft 216 kts 260°
2026-04-19 05:46 -32.87077 151.61757 11062 ft 218 kts 260°
2026-04-19 05:47 -32.87164 151.59958 11441 ft 219 kts 260°
2026-04-19 05:47 -32.87252 151.58153 11799 ft 220 kts 260°
2026-04-19 05:47 -32.87339 151.56342 12169 ft 221 kts 260°
2026-04-19 05:47 -32.87425 151.54518 12533 ft 221 kts 260°
2026-04-19 05:48 -32.87509 151.52695 12894 ft 220 kts 260°
2026-04-19 05:48 -32.87592 151.50906 13249 ft 219 kts 259°
2026-04-19 05:48 -32.87677 151.49100 13612 ft 217 kts 259°
2026-04-19 05:48 -32.87759 151.47322 13984 ft 215 kts 260°
2026-04-19 05:49 -32.87841 151.45557 14350 ft 212 kts 259°
2026-04-19 05:49 -32.87922 151.43819 14706 ft 209 kts 260°
2026-04-19 05:49 -32.88000 151.42113 15073 ft 205 kts 259°
2026-04-19 05:49 -32.88078 151.40439 15421 ft 204 kts 259°
2026-04-19 05:50 -32.88195 151.38734 15607 ft 210 kts 251°
2026-04-19 05:50 -32.88703 151.37115 15751 ft 215 kts 239°
2026-04-19 05:50 -32.89393 151.35475 15890 ft 226 kts 238°
2026-04-19 05:50 -32.90115 151.33760 16028 ft 237 kts 239°
2026-04-19 05:51 -32.90862 151.31973 16117 ft 250 kts 240°
2026-04-19 05:51 -32.91656 151.30051 16145 ft 265 kts 240°
2026-04-19 05:51 -32.92485 151.28033 16151 ft 278 kts 240°
2026-04-19 05:51 -32.93362 151.25944 16137 ft 288 kts 238°
2026-04-19 05:52 -32.94700 151.24185 16135 ft 290 kts 212°
2026-04-19 05:52 -32.96647 151.23463 16161 ft 296 kts 188°
2026-04-19 05:52 -32.98709 151.23311 16149 ft 302 kts 185°
2026-04-19 05:52 -33.00821 151.23200 15943 ft 303 kts 184°
2026-04-19 05:53 -33.02904 151.23102 15673 ft 294 kts 184°
2026-04-19 05:53 -33.04914 151.23009 15384 ft 283 kts 184°
2026-04-19 05:53 -33.06850 151.22916 15099 ft 274 kts 185°
2026-04-19 05:53 -33.08723 151.22824 14826 ft 266 kts 185°
2026-04-19 05:54 -33.10574 151.22729 14580 ft 261 kts 185°
2026-04-19 05:54 -33.12370 151.22635 14307 ft 259 kts 185°
2026-04-19 05:54 -33.14167 151.22539 14030 ft 257 kts 185°
2026-04-19 05:54 -33.15953 151.22444 13769 ft 254 kts 185°
2026-04-19 05:55 -33.17701 151.22351 13521 ft 250 kts 184°
2026-04-19 05:55 -33.19426 151.22258 13272 ft 246 kts 185°
2026-04-19 05:55 -33.21117 151.22168 13011 ft 244 kts 184°
2026-04-19 05:55 -33.22813 151.22075 12765 ft 241 kts 185°
2026-04-19 05:56 -33.24479 151.21985 12523 ft 238 kts 184°
2026-04-19 05:56 -33.26131 151.21895 12278 ft 235 kts 185°
2026-04-19 05:56 -33.27750 151.21808 12038 ft 233 kts 185°
2026-04-19 05:56 -33.29367 151.21719 11799 ft 230 kts 185°
2026-04-19 05:57 -33.30949 151.21632 11565 ft 228 kts 185°
2026-04-19 05:57 -33.32530 151.21547 11320 ft 225 kts 185°
2026-04-19 05:57 -33.34102 151.21462 11093 ft 223 kts 185°
2026-04-19 05:57 -33.35626 151.21378 10873 ft 220 kts 185°
2026-04-19 05:58 -33.37164 151.21294 10646 ft 218 kts 185°
2026-04-19 05:58 -33.38660 151.21213 10426 ft 216 kts 185°
2026-04-19 05:58 -33.40167 151.21133 10203 ft 213 kts 185°
2026-04-19 05:58 -33.41643 151.21051 9991 ft 211 kts 185°
2026-04-19 05:59 -33.43096 151.20967 9771 ft 209 kts 185°
2026-04-19 05:59 -33.44523 151.20712 9534 ft 207 kts 194°
2026-04-19 05:59 -33.45886 151.20316 9527 ft 196 kts 195°
2026-04-19 05:59 -33.47203 151.19925 9500 ft 195 kts 194°
2026-04-19 06:00 -33.48523 151.19537 9458 ft 195 kts 194°
2026-04-19 06:00 -33.49872 151.19141 9311 ft 203 kts 195°
2026-04-19 06:00 -33.51273 151.18730 9073 ft 212 kts 195°
2026-04-19 06:00 -33.52687 151.18327 8820 ft 202 kts 194°
2026-04-19 06:01 -33.54026 151.17949 8515 ft 191 kts 195°
2026-04-19 06:01 -33.55260 151.17598 8278 ft 175 kts 195°
2026-04-19 06:01 -33.56419 151.17262 8024 ft 166 kts 196°
2026-04-19 06:01 -33.57510 151.16946 7779 ft 162 kts 196°
2026-04-19 06:02 -33.58600 151.16626 7553 ft 161 kts 197°
2026-04-19 06:02 -33.59696 151.16303 7330 ft 164 kts 197°
2026-04-19 06:02 -33.60819 151.15971 7102 ft 168 kts 197°
2026-04-19 06:02 -33.61971 151.15652 6862 ft 172 kts 194°
2026-04-19 06:03 -33.63161 151.15410 6644 ft 174 kts 194°
2026-04-19 06:03 -33.64180 151.14728 6379 ft 174 kts 235°
2026-04-19 06:03 -33.64651 151.13380 6142 ft 176 kts 239°
2026-04-19 06:03 -33.65245 151.12077 5969 ft 178 kts 234°
2026-04-19 06:04 -33.66198 151.11177 5760 ft 181 kts 200°
2026-04-19 06:04 -33.67472 151.11177 5577 ft 190 kts 169°
2026-04-19 06:04 -33.68756 151.11630 5466 ft 193 kts 167°
2026-04-19 06:04 -33.70015 151.12241 5369 ft 197 kts 157°
2026-04-19 06:05 -33.71223 151.13028 5286 ft 199 kts 155°
2026-04-19 06:05 -33.72452 151.13825 5219 ft 199 kts 156°
2026-04-19 06:05 -33.73689 151.14525 5143 ft 194 kts 167°
2026-04-19 06:05 -33.74990 151.14909 4913 ft 187 kts 168°
2026-04-19 06:06 -33.76212 151.15273 4683 ft 174 kts 172°
2026-04-19 06:06 -33.77390 151.15483 4381 ft 171 kts 175°
2026-04-19 06:06 -33.78593 151.15631 3984 ft 177 kts 179°
2026-04-19 06:06 -33.79828 151.15668 3610 ft 174 kts 180°
2026-04-19 06:07 -33.81020 151.15703 3219 ft 168 kts 177°
2026-04-19 06:07 -33.82159 151.15808 2827 ft 162 kts 174°
2026-04-19 06:07 -33.83258 151.15951 2541 ft 155 kts 173°
2026-04-19 06:07 -33.84323 151.16135 2388 ft 155 kts 169°
2026-04-19 06:08 -33.85386 151.16399 2202 ft 157 kts 167°
2026-04-19 06:08 -33.86465 151.16667 1945 ft 161 kts 167°
2026-04-19 06:08 -33.87550 151.16962 1684 ft 156 kts 164°
2026-04-19 06:08 -33.88592 151.17291 1372 ft 151 kts 165°
2026-04-19 06:09 -33.89598 151.17552 1160 ft 147 kts 168°
2026-04-19 06:09 -33.90605 151.17763 1016 ft 147 kts 171°
2026-04-19 06:09 -33.91625 151.17960 805 ft 149 kts 169°
2026-04-19 06:09 -33.92635 151.18213 532 ft 146 kts 165°
2026-04-19 06:10 -33.93588 151.18486 315 ft 137 kts 168°
2026-04-19 06:10 -33.94488 151.18710 180 ft 128 kts 168°
2026-04-19 06:10 -33.95353 151.18930 33 ft 119 kts 167°
2026-04-19 06:10 -33.96088 151.19124 10 ft 97 kts 167°
2026-04-19 06:11 -33.96519 151.19223 13 ft 51 kts 180°
2026-04-19 06:11 -33.96692 151.19174 14 ft 0 kts 216°
2026-04-19 06:12 -33.96710 151.19099 14 ft 22 kts 300°
2026-04-19 06:12 -33.96481 151.19023 12 ft 46 kts 348°
2026-04-19 06:12 -33.96098 151.18926 10 ft 63 kts 347°
2026-04-19 06:12 -33.95643 151.18806 11 ft 60 kts 347°
2026-04-19 06:13 -33.95367 151.18733 13 ft 35 kts 348°
2026-04-19 06:13 -33.95175 151.18610 16 ft 28 kts 315°
2026-04-19 06:13 -33.95121 151.18414 18 ft 23 kts 260°
2026-04-19 06:13 -33.95152 151.18245 19 ft 16 kts 257°
2026-04-19 06:14 -33.95155 151.18231 19 ft 0 kts 258°
2026-04-19 06:14 -33.95159 151.18205 20 ft 12 kts 258°
2026-04-19 06:14 -33.95174 151.18124 20 ft 15 kts 258°
2026-04-19 06:14 -33.95184 151.18002 20 ft 14 kts 290°
2026-04-19 06:15 -33.95105 151.17946 21 ft 13 kts 348°
2026-04-19 06:15 -33.95007 151.17920 25 ft 21 kts 348°
2026-04-19 06:15 -33.94810 151.17870 27 ft 30 kts 348°
2026-04-19 06:15 -33.94613 151.17818 26 ft 27 kts 347°
2026-04-19 06:16 -33.94435 151.17769 24 ft 25 kts 346°
2026-04-19 06:16 -33.94207 151.17697 18 ft 25 kts 345°
2026-04-19 06:16 -33.94036 151.17645 12 ft 25 kts 347°
2026-04-19 06:16 -33.93867 151.17601 10 ft 23 kts 348°
2026-04-19 06:17 -33.93703 151.17560 10 ft 24 kts 348°
2026-04-19 06:17 -33.93545 151.17519 10 ft 22 kts 348°
2026-04-19 06:17 -33.93402 151.17503 14 ft 18 kts 354°
2026-04-19 06:17 -33.93284 151.17479 18 ft 16 kts 348°
2026-04-19 06:18 -33.93173 151.17448 21 ft 16 kts 347°
2026-04-19 06:18 -33.93078 151.17476 22 ft 14 kts 61°
2026-04-19 06:18 -33.93014 151.17564 23 ft 13 kts 62°
2026-04-19 06:18 -33.93019 151.17670 23 ft 11 kts 110°
2026-04-19 06:19 -33.93050 151.17749 23 ft 12 kts 113°
2026-04-19 06:19 -33.93079 151.17915 25 ft 21 kts 100°
2026-04-19 06:19 -33.93100 151.18059 28 ft 9 kts 102°
2026-04-19 06:19 -33.93135 151.18083 28 ft 5 kts 187°
2026-04-19 06:20 -33.93178 151.18074 28 ft 0 kts 190°